[[{"header":{"parameterUnit":"m.s-1","parameterCategory":1,"la1":30.2991,"la2":30.254,"lo1":-89.0895,"lo2":-89.0444,"dy":0.0017,"dx":0.0017,"nx":28,"ny":28,"refTime":"2025-09-13T03:00:00:Z","depth":0,"parameterNumber":2,"parameterNumberName":"U-component_of_WINDS"},"data":[0,0,0,0,0,0,0,0,0,0,0,0,0,0,0,0,0,0,0,0,0,0,0,0,0,0,0,0,0,0,0,0,0,0,0,0,0,0,0,0,0,0,0,0,0,0,0,0,0,0,0,0,0,0,0,0,0,0,-4.3973,-4.3973,0,-4.3981,-4.3981,-4.3981,-4.3901,-4.3898,-4.3896,-4.3894,-4.3901,-4.3903,-4.3905,0,0,0,0,0,0,0,0,0,0,0,0,0,-4.3891,-4.3893,-4.3973,-4.3973,-4.3973,-4.3981,-4.3981,-4.3981,-4.3901,-4.3898,-4.3896,-4.3893,-4.39,-4.3903,-4.3906,0,0,0,0,0,0,0,0,0,0,0,0,0,-4.3916,-4.3894,-4.3973,-4.3935,-4.3931,-4.3981,-4.3981,-4.3981,-4.3902,-4.3898,-4.3895,-4.3892,-4.3899,-4.3903,-4.3906,-4.3993,0,0,-4.3916,-4.3918,0,0,0,0,0,0,0,0,-4.3914,-4.3919,-4.394,-4.3937,-4.3934,-4.3936,-4.3954,-4.3985,-4.3902,-4.3913,-4.3894,-4.389,-4.3915,-4.3917,-4.3926,-4.3993,-4.3993,-4.3917,-4.3919,-4.392,-4.3921,0,0,0,0,0,0,0,-4.3913,-4.3918,-4.3976,-4.3941,-4.3937,-4.3917,-4.3917,-4.396,-4.3932,-4.3912,-4.3906,-4.3908,-4.3913,-4.3923,-4.3925,-4.3993,-4.3916,-4.3919,-4.3921,-4.3923,-4.4133,-4.4137,0,0,0,0,0,0,-4.3916,-4.3917,-4.3976,-4.3976,-4.3916,-4.3921,-4.3921,-4.3939,-4.3932,-4.3928,-4.3911,-4.3904,-4.3919,-4.3922,-4.3925,-4.4026,-4.392,-4.3923,-4.3925,-4.413,-4.4134,-4.4138,0,0,0,0,0,0,-4.3915,-4.3922,-4.3976,-4.3945,-4.3951,-4.3926,-4.3947,-4.3941,-4.395,-4.3931,-4.3926,-4.3925,-4.3916,-4.3921,-4.3977,-4.4025,-4.3925,-4.3928,-4.4125,-4.4131,-4.4136,-4.4228,0,0,0,0,0,0,-4.3913,-4.3922,-4.3954,-4.3947,-4.3952,-4.4027,-4.395,-4.3943,-4.3956,-4.3948,-4.3944,-4.394,-4.3914,-4.3972,-4.398,-4.4028,-4.393,-4.4121,-4.4128,-4.4134,-4.422,-4.4236,-4.4249,0,0,0,0,0,-4.391,-4.398,-4.3956,-4.3964,-4.3992,-4.4029,-4.4033,-4.4002,-4.3961,-4.3993,-4.3981,-4.394,-4.4019,-4.3979,-4.3987,-4.4036,-4.4118,-4.4126,-4.4134,-4.4214,-4.4233,-4.4249,0,0,0,0,0,0,-4.3993,-4.3978,-4.3952,-4.4021,-4.4027,-4.4016,-4.4055,-4.4023,-4.404,-4.4032,-4.3993,-4.3993,-4.4055,-4.4052,-4.4007,-4.412,-4.4061,-4.4071,-4.4119,-4.4137,-4.4151,-4.4149,-4.3933,0,0,0,0,0,-4.4019,-4.4051,-4.4036,-4.4099,-4.4103,-4.4079,-4.4094,-4.407,-4.4075,-4.4077,-4.4069,-4.4076,-4.4102,-4.412,-4.4143,-4.4221,-4.4219,-4.4259,-4.4274,-4.4285,-4.4293,-4.4335,-4.4352,-4.4164,-4.4164,-4.4164,0,0,-4.4073,-4.4069,-4.4091,-4.4115,-4.4117,-4.4151,-4.4082,-4.412,-4.4144,-4.4083,-4.4135,-4.413,-4.4135,-4.4202,-4.4232,-4.4201,-4.4346,-4.4296,-4.4305,-4.4307,-4.4345,-4.4362,-4.4378,-4.417,-4.4169,-4.4168,0,0,-4.4189,-4.419,-4.4241,-4.4246,-4.425,-4.4234,-4.4247,-4.4242,-4.4236,-4.4288,-4.4243,-4.4273,-4.4319,-4.4324,-4.4333,-4.4455,-4.4418,-4.4464,-4.4537,-4.4577,-4.4592,-4.4605,-4.4647,-4.4663,-4.4473,-4.4473,-4.4473,0,-4.4255,-4.4304,-4.4272,-4.4314,-4.4325,-4.4274,-4.4326,-4.4332,-4.4344,-4.4353,-4.432,-4.4378,-4.4377,-4.4445,-4.4475,-4.4485,-4.4498,-4.4462,-4.4593,-4.4605,-4.4617,-4.4657,-4.4673,-4.4479,-4.4478,-4.4477,-4.4477,0,-4.4385,-4.442,-4.4461,-4.4475,-4.4492,-4.4539,-4.4515,-4.4536,-4.4512,-4.45,-4.4555,-4.4554,-4.4576,-4.4591,-4.4567,-4.4656,-4.4637,-4.46,-4.4538,-4.4641,-4.4677,-4.4692,-4.4486,-4.4484,-4.4483,-4.4481,0,0,-4.4547,-4.4546,-4.4561,-4.4567,-4.457,-4.4596,-4.4643,-4.4665,-4.4684,-4.4695,-4.4732,-4.4774,-4.474,-4.475,-4.4728,-4.4764,-4.4859,-4.4721,-4.4721,-4.4745,-4.4956,-4.4983,-4.5001,-4.4837,-4.4839,-4.4842,-4.4955,0,-4.4658,-4.4735,-4.4709,-4.4787,-4.4819,-4.4773,-4.4812,-4.4819,-4.4811,-4.4837,-4.4827,-4.4857,-4.481,-4.4816,-4.485,-4.484,-4.4901,-4.4832,-4.4869,-4.4871,-4.4866,-4.502,-4.5047,-4.5154,-4.497,-4.4972,-4.4974,0,-4.4796,-4.4814,-4.4895,-4.4895,-4.4907,-4.4943,-4.4962,-4.4989,-4.4996,-4.4987,-4.5001,-4.4972,-4.5017,-4.496,-4.5021,-4.4975,-4.499,-4.4988,-4.4992,-4.4991,-4.4926,-4.5021,-4.5188,-4.5203,-4.4996,-4.4994,-4.4993,0,-4.4904,-4.4949,-4.5004,-4.5011,-4.5012,-4.5038,-4.504,-4.5044,-4.506,-4.5078,-4.5088,-4.5111,-4.5123,-4.5142,-4.512,-4.508,-4.5185,-4.5125,-4.5178,-4.5179,-4.5198,-4.5197,-4.5367,-4.5214,-4.5213,-4.5213,-4.5213,0,-4.5029,-4.508,-4.5052,-4.5085,-4.5142,-4.5114,-4.5171,-4.5167,-4.5173,-4.5204,-4.5167,-4.5198,-4.5168,-4.5197,-4.5181,-4.5234,-4.5241,-4.5234,-4.5229,-4.5236,-4.5236,-4.5242,-4.5233,-4.5217,-4.5216,-4.5215,-4.5215,0,-4.5157,-4.5141,-4.5197,-4.5194,-4.5195,-4.5237,-4.5235,-4.5266,-4.5256,-4.5297,-4.5306,-4.529,-4.5322,-4.5304,-4.5336,-4.5325,-4.5394,-4.538,-4.5392,-4.5387,-4.5439,-4.5434,-4.5616,-4.5639,-4.5474,-4.5475,-4.5477,0,-4.5235,-4.5274,-4.5276,-4.5295,-4.53,-4.5331,-4.5347,-4.5323,-4.5341,-4.5355,-4.5384,-4.5414,-4.5435,-4.5489,-4.548,-4.5506,-4.549,-4.5553,-4.5493,-4.55,-4.5488,-4.5485,-4.5488,-4.5563,-4.5565,-4.5567,-4.5568,0,-4.5376,-4.5367,-4.5392,-4.5415,-4.5436,-4.5453,-4.5467,-4.5485,-4.5461,-4.5484,-4.5517,-4.5534,-4.5569,-4.5598,-4.562,-4.5622,-4.5591,-4.5588,-4.5601,-4.5607,-4.5611,-4.5607,-4.5421,-4.5583,-4.5581,-4.558,-4.5579,-4.5579,-4.548,-4.5512,-4.5519,-4.5549,-4.5558,-4.5572,-4.5601,-4.5596,-4.5623,-4.5649,-4.5634,-4.5673,-4.5681,-4.5708,-4.5715,-4.5745,-4.5719,-4.5739,-4.5743,-4.5748,-4.5754,-4.5609,-4.5749,-4.5749,-4.5748,-4.5748,-4.5748,0,-4.5616,-4.562,-4.5648,-4.5669,-4.5693,-4.5664,-4.5679,-4.5701,-4.5735,-4.5747,-4.5769,-4.5808,-4.5837,-4.5833,-4.586,-4.5884,-4.5871,-4.5892,-4.5888,-4.5889,-4.5776,-4.5761,-4.5902,-4.5902,-4.5902,-4.5902,-4.5902,-4.5902,-4.569,-4.5742,-4.5735,-4.5793,-4.5796,-4.5833,-4.5844,-4.5858,-4.5867,-4.5911,-4.5936,-4.5933,-4.5939,-4.5966,-4.5992,-4.599,-4.6,-4.6026,-4.6019,-4.5913,-4.5897,-4.5882,-4.5868,-4.603,-4.603,-4.6129,-4.613,-4.6131]},{"header":{"parameterUnit":"m.s-1","parameterCategory":1,"la1":30.2991,"la2":30.254,"lo1":-89.0895,"lo2":-89.0444,"dy":0.0017,"dx":0.0017,"nx":28,"ny":28,"refTime":"2025-09-13T03:00:00:Z","depth":0,"parameterNumber":3,"parameterNumberName":"V-component_of_WINDS"},"data":[0,0,0,0,0,0,0,0,0,0,0,0,0,0,0,0,0,0,0,0,0,0,0,0,0,0,0,0,0,0,0,0,0,0,0,0,0,0,0,0,0,0,0,0,0,0,0,0,0,0,0,0,0,0,0,0,0,0,2.637,2.6371,0,2.6412,2.6412,2.6413,2.6462,2.6463,2.6464,2.6465,2.6503,2.6503,2.6503,0,0,0,0,0,0,0,0,0,0,0,0,0,2.6331,2.6332,2.637,2.6371,2.6371,2.6412,2.6412,2.6413,2.6462,2.6463,2.6464,2.6465,2.6503,2.6503,2.6503,0,0,0,0,0,0,0,0,0,0,0,0,0,2.6358,2.6332,2.637,2.6401,2.6404,2.6412,2.6412,2.6413,2.6462,2.6463,2.6464,2.6465,2.6503,2.6503,2.6503,2.6483,0,0,2.6505,2.6505,0,0,0,0,0,0,0,0,2.6356,2.6359,2.6396,2.6399,2.6402,2.6433,2.6413,2.6436,2.6462,2.644,2.6465,2.6466,2.6478,2.6481,2.6486,2.6485,2.6486,2.6505,2.6505,2.6505,2.6505,0,0,0,0,0,0,0,2.6354,2.6358,2.6387,2.6396,2.64,2.6412,2.6417,2.6417,2.6452,2.6442,2.6446,2.645,2.648,2.6485,2.6487,2.6487,2.6505,2.6505,2.6506,2.6506,2.6472,2.6471,0,0,0,0,0,0,2.6348,2.6356,2.6385,2.6388,2.6382,2.6412,2.6417,2.6422,2.6452,2.6458,2.6449,2.6452,2.6484,2.6487,2.6489,2.6467,2.6505,2.6506,2.6506,2.6473,2.6472,2.6471,0,0,0,0,0,0,2.6347,2.6351,2.6384,2.6373,2.6378,2.6411,2.6416,2.6422,2.6427,2.6458,2.6464,2.6448,2.6485,2.6488,2.6485,2.6469,2.6506,2.6506,2.6475,2.6473,2.6471,2.6423,0,0,0,0,0,0,2.6346,2.635,2.6343,2.6373,2.6379,2.6379,2.6415,2.6422,2.6429,2.6433,2.6458,2.6463,2.6486,2.6484,2.6485,2.6471,2.6507,2.6476,2.6474,2.6472,2.6426,2.642,2.6415,0,0,0,0,0,2.6345,2.6327,2.6342,2.6345,2.6371,2.6378,2.6382,2.641,2.6427,2.642,2.644,2.6463,2.6471,2.6483,2.6485,2.647,2.6477,2.6474,2.6472,2.6429,2.6422,2.6415,0,0,0,0,0,0,2.6292,2.6331,2.6349,2.634,2.6356,2.6387,2.6378,2.64,2.641,2.6414,2.6447,2.6452,2.6445,2.6457,2.647,2.6453,2.6477,2.6475,2.6444,2.6437,2.6432,2.6428,2.6507,0,0,0,0,0,2.628,2.6284,2.6317,2.6306,2.6314,2.6345,2.6349,2.637,2.6387,2.6393,2.6412,2.6427,2.6433,2.6436,2.6443,2.6429,2.6435,2.642,2.6414,2.641,2.6407,2.6401,2.6394,2.6462,2.6462,2.6462,0,0,2.6254,2.6276,2.6276,2.6297,2.6311,2.6314,2.635,2.6351,2.6353,2.6393,2.6391,2.6406,2.6424,2.6416,2.6413,2.6426,2.639,2.6406,2.6402,2.6402,2.6397,2.6391,2.6385,2.646,2.646,2.6461,0,0,2.6208,2.6225,2.6218,2.6233,2.6256,2.6277,2.6275,2.6303,2.6315,2.6315,2.6345,2.6348,2.6357,2.637,2.6377,2.6338,2.636,2.634,2.6309,2.6303,2.6298,2.6293,2.6279,2.6274,2.6337,2.6337,2.6337,0,2.6172,2.6179,2.6212,2.6212,2.622,2.6258,2.6252,2.6264,2.6287,2.6291,2.6306,2.632,2.6335,2.633,2.6321,2.6326,2.6325,2.6336,2.6296,2.6292,2.6288,2.6275,2.627,2.6334,2.6335,2.6335,2.6335,0,2.6134,2.6138,2.613,2.6154,2.6161,2.6157,2.6189,2.6193,2.6213,2.6233,2.6232,2.6252,2.6264,2.6265,2.6283,2.6263,2.627,2.629,2.6316,2.6278,2.6267,2.6262,2.6331,2.6332,2.6332,2.6333,0,0,2.6054,2.6098,2.6094,2.6106,2.6135,2.6138,2.6137,2.6151,2.6153,2.6168,2.6167,2.6176,2.6195,2.6204,2.6225,2.6219,2.6188,2.624,2.6241,2.6229,2.6166,2.615,2.6144,2.6203,2.6202,2.6201,2.6164,0,2.6013,2.6014,2.6044,2.6036,2.6041,2.6079,2.6077,2.6094,2.6113,2.6119,2.6139,2.6145,2.617,2.6175,2.6172,2.6192,2.6175,2.6195,2.6201,2.6201,2.6195,2.6138,2.6121,2.6085,2.616,2.6159,2.6159,0,2.5964,2.5979,2.5972,2.6003,2.6006,2.6004,2.602,2.6026,2.6046,2.606,2.6071,2.6096,2.6096,2.6121,2.6121,2.6135,2.6139,2.615,2.6149,2.6149,2.6177,2.6136,2.6074,2.6068,2.6152,2.6152,2.6153,0,2.5906,2.5924,2.5923,2.5932,2.5967,2.5966,2.598,2.6002,2.6009,2.6023,2.6028,2.6041,2.6047,2.6056,2.6084,2.61,2.6081,2.6108,2.6092,2.6091,2.6085,2.6085,2.6021,2.6089,2.6089,2.6089,2.6089,0,2.5857,2.5851,2.5898,2.5896,2.5891,2.5927,2.592,2.5938,2.5958,2.596,2.5993,2.5995,2.6032,2.6037,2.6058,2.6056,2.6058,2.6069,2.6074,2.6066,2.6064,2.6068,2.6071,2.6088,2.6088,2.6088,2.6089,0,2.579,2.5821,2.5822,2.5857,2.5866,2.5861,2.589,2.589,2.5912,2.5915,2.5918,2.5951,2.5959,2.5988,2.6003,2.6017,2.6008,2.6019,2.6001,2.6004,2.5986,2.5987,2.5922,2.5916,2.5988,2.5987,2.5986,0,2.5756,2.5753,2.5788,2.5794,2.5807,2.5815,2.5823,2.5858,2.5865,2.5889,2.5886,2.5898,2.5908,2.592,2.5945,2.5956,2.5968,2.5944,2.5969,2.5961,2.5967,2.5967,2.5966,2.5938,2.5937,2.5937,2.5936,0,2.5692,2.5708,2.5719,2.5736,2.5746,2.576,2.5777,2.5778,2.5818,2.5823,2.5834,2.5842,2.5859,2.587,2.5886,2.59,2.5924,2.5928,2.5925,2.5915,2.5905,2.591,2.5985,2.5929,2.593,2.593,2.5931,2.5931,2.564,2.564,2.5665,2.5677,2.5694,2.5709,2.5711,2.5734,2.5744,2.5761,2.5781,2.5789,2.581,2.5835,2.5848,2.5854,2.5867,2.5862,2.586,2.5859,2.5854,2.5905,2.5857,2.5857,2.5857,2.5857,2.5857,0,2.5578,2.5597,2.5608,2.5631,2.564,2.5665,2.5685,2.569,2.5697,2.5716,2.5727,2.5739,2.575,2.5777,2.579,2.579,2.5801,2.5792,2.5792,2.5795,2.5842,2.5843,2.5783,2.5783,2.5783,2.5783,2.5783,2.5783,2.5547,2.5547,2.5567,2.5576,2.5595,2.5604,2.5614,2.5628,2.5643,2.5656,2.5666,2.5684,2.5706,2.5722,2.5733,2.574,2.5743,2.5731,2.5741,2.5784,2.5791,2.5798,2.58,2.5731,2.5731,2.5694,2.5694,2.5694]}]]